Torna al catalogo

VELA 2

LostMilitareHEO
NORAD 674·PAYLOAD·🇺🇸 United States

Lanciato Oct 17, 1963 da Cape Canaveral Space Force Station

Loading…

Prossimi Passaggi (prossime 24 ore)

TLE

ObsoletoSource: Space-Track

Epoca: Aug 12, 2026, 08:25 UTC

1 00674U 63039A   26224.35111229 -.00000709  00000-0  00000-0 0  9995
2 00674  47.8631  92.8572 6522159  86.9089 359.7597  0.22186319  9502

Traccia VELA 2 in tempo reale con AllMySat

Download on the App Store